Regional Weather Roundup
Issued by NWS

Home | Current Version | Previous Version | Graphics & Text | Print | Product List | Glossary On
Versions: 1 2 3 4 5 6 7 8 9 10 11 12 13 14 15 16 17 18 19 20 21 22 23 24 25 26 27 28 29 30 31 32 33 34 35 36 37 38 39 40 41 42 43 44 45 46 47 48 49 50
000
ASUS43 KFSD 262002
RWRSD

WEATHER ROUNDUP FOR SOUTH DAKOTA
NATIONAL WEATHER SERVICE SIOUX FALLS SD
300 PM CDT SUN APR 26 2015

NOTE: "FAIR" INDICATES FEW OR NO CLOUDS BELOW 12,000 FEET WITH NO
SIGNIFICANT WEATHER AND/OR OBSTRUCTIONS TO VISIBILITY.


SDZ001>005-009-010-012>017-262100-
NORTHWEST AND NORTH CENTRAL SOUTH DAKOTA

CITY           SKY/WX    TMP DP  RH WIND       PRES   REMARKS
BUFFALO          N/A     45  44  97 NE17      29.99R
FAITH            N/A     58  40  51 SE13      30.03R
MOBRIDGE       CLOUDY    66  37  34 S13       30.03S
$$

SDZ012>016-024>037-041>051-057-063-072>074-262100-
SOUTHWEST AND SOUTH CENTRAL SOUTH DAKOTA

CITY           SKY/WX    TMP DP  RH WIND       PRES   REMARKS
RAPID CTY ARPT CLOUDY    51  46  83 S5        30.02S
PIERRE         PTSUNNY   62  40  44 SE15G22   30.03S
CUSTER         LGT RAIN  39  38  96 E13       30.01R FOG
ELLSWORTH AFB  CLOUDY    50  47  89 S5        30.02R
PHILIP         CLOUDY    59  40  49 SE14      30.03R
PINE RIDGE     LGT RAIN  49  43  80 E9        30.01R
WINNER         FAIR      62  37  39 SE10      30.03S
$$

SDZ004>011-016>023-039-040-262100-
NORTHEAST SOUTH DAKOTA

CITY           SKY/WX    TMP DP  RH WIND       PRES   REMARKS
ABERDEEN       SUNNY     67  32  27 E12       30.07F
WATERTOWN      SUNNY     64  30  27 NE8       30.08S
BROOKINGS      SUNNY     61  30  31 E12       30.08S
SISSETON         N/A     63  30  28 VRB6      30.10S
$$

SDZ017-020-022-023-036>040-048>070-262100-
SOUTHEAST SOUTH DAKOTA

CITY           SKY/WX    TMP DP  RH WIND       PRES   REMARKS
SIOUX FALLS    SUNNY     65  33  30 NE7       30.05S
HURON          SUNNY     66  30  26 E9        30.05F
MITCHELL       SUNNY     64  33  31 SE10G20   30.06F
YANKTON        SUNNY     63  34  34 E12       30.03F
$$

ABBREVIATIONS USED IN REMARKS
   TC - TEMPERATURE IN CELSIUS
  WCI - WIND CHILL INDEX
   HX - HEAT INDEX
  VSB - VISIBILITY



USA.gov is the U.S. government's official web portal to all federal, state and local government web resources and services.